Location: Niagara
(43.2500°N, 79.0670°W)
Time: 17:44:29
(UTC-04:00)

Tiangong 1 - Pass Details

Date: 07 October 2017
Orbit: 293 x 320 km, 42.8° (Epoch: 20 October)

Event Time Altitude Azimuth Distance (km) Brightness Sun altitude
Rises 20:20:35 0° 258° (WSW) 2,032 6.0 -17.9°
Reaches altitude 10° 20:22:34 10° 256° (WSW) 1,198 4.6 -18.3°
Enters shadow 20:24:46 53° 234° (SW) 387 1.3 -18.7°
